Weather History for Las Vegas, NV

Change the Weather History Date:

Wednesday, August 27, 2014

  Actual Average Record
Temperature  
Mean Temperature 86 °F 89 °F  
Max Temperature 96 °F 100 °F 109 °F (2001)
Min Temperature 75 °F 78 °F 60 °F (1943)
Degree Days  
Heating Degree Days 0 0  
Month to date heating degree days 0 0  
Since 1 June heating degree days 0 1  
Since 1 July heating degree days 0 0  
Cooling Degree Days 21 24  
Month to date cooling degree days 622 701  
Year to date cooling degree days 2919 2755  
Since 1 June cooling degree days 2261 2205  
Growing Degree Days 36 (Base 50)    
Moisture  
Dew Point 40 °F    
Average Humidity 23    
Maximum Humidity 36    
Minimum Humidity 10    
Precipitation  
Precipitation 0.00 in 0.01 in 0.58 in (2007)
Month to date precipitation 0.35 0.29  
Year to date precipitation 0.87 2.77  
Snow  
Snow 0.00 in 0.00 in 0.00 in ()
Month to date snowfall 0.0 0.0  
Since 1 June snowfall 0.0 0.0  
Since 1 July snowfall 0.0 0.0  
Snow Depth 0.00 in    
Sea Level Pressure  
Sea Level Pressure 29.93 in    
Wind  
Wind Speed 5 mph (South)    
Max Wind Speed 12 mph    
Max Gust Speed 15 mph    
Visibility 10 miles    
Events      
T = Trace of Precipitation, MM = Missing Value Source: NWS Daily Summary

Daily Weather History Graph

Daily Weather History Graph

Search for Another Location

Airport:

Trip Planner

Search our weather history database for the weather conditions in past years. The results will help you decide how hot, cold, wet, or windy it might be!

Date:

Astronomy

Aug. 27, 2014 Rise Set
Actual Time 6:08 AM PDT 7:15 PM PDT
Civil Twilight 5:42 AM PDT 7:41 PM PDT
Nautical Twilight 5:10 AM PDT 8:12 PM PDT
Astronomical Twilight 4:37 AM PDT 8:45 PM PDT
Moon 8:03 AM PDT (8/27) 8:15 PM PDT (8/27)
Length of Visible Light 13h 59m
Length of Day
13h 06m
Waxing Crescent, 4% of the Moon is Illuminated
Aug 27
Waxing Crescent
Sep 2
First Quarter
Sep 8
Full
Sep 15
Last Quarter
Sep 23
New

Hourly Weather History & Observations

Time (PDT) Temp. Dew Point Humidity Pressure Visibility Wind Dir Wind Speed Gust Speed Precip Events Conditions
12:56 AM 80.1 °F 44.1 °F 28% 29.89 in 10.0 mi WNW 3.5 mph - N/A   Clear
1:56 AM 79.0 °F 45.0 °F 30% 29.89 in 10.0 mi North 3.5 mph - N/A   Clear
2:56 AM 78.1 °F 45.0 °F 31% 29.91 in 10.0 mi ENE 3.5 mph - N/A   Clear
3:56 AM 75.9 °F 46.0 °F 35% 29.91 in 10.0 mi Calm Calm - N/A   Clear
4:56 AM 75.9 °F 46.0 °F 35% 29.92 in 10.0 mi SSW 5.8 mph - N/A   Clear
5:56 AM 75.0 °F 45.0 °F 34% 29.95 in 10.0 mi Calm Calm - N/A   Clear
6:56 AM 75.0 °F 46.0 °F 36% 29.98 in 10.0 mi Calm Calm - N/A   Clear
7:56 AM 77.0 °F 46.0 °F 33% 29.99 in 10.0 mi South 4.6 mph - N/A   Clear
8:56 AM 80.1 °F 45.0 °F 29% 30.00 in 10.0 mi SSE 5.8 mph - N/A   Clear
9:56 AM 82.9 °F 43.0 °F 24% 30.01 in 10.0 mi Variable 4.6 mph - N/A   Clear
10:56 AM 86.0 °F 45.0 °F 24% 30.00 in 10.0 mi ESE 4.6 mph - N/A   Clear
11:56 AM 88.0 °F 46.9 °F 24% 29.98 in 10.0 mi Variable 4.6 mph - N/A   Partly Cloudy
12:56 PM 89.1 °F 46.0 °F 22% 29.96 in 10.0 mi South 9.2 mph - N/A   Partly Cloudy
1:56 PM 91.9 °F 42.1 °F 18% 29.94 in 10.0 mi SE 4.6 mph - N/A   Partly Cloudy
2:56 PM 93.9 °F 39.9 °F 15% 29.92 in 10.0 mi Calm Calm - N/A   Partly Cloudy
3:56 PM 95.0 °F 36.0 °F 13% 29.89 in 10.0 mi SSE 4.6 mph - N/A   Partly Cloudy
4:56 PM 96.1 °F 30.0 °F 10% 29.88 in 10.0 mi Variable 4.6 mph - N/A   Partly Cloudy
5:56 PM 96.1 °F 30.9 °F 10% 29.87 in 10.0 mi Variable 3.5 mph - N/A   Partly Cloudy
6:56 PM 93.9 °F 32.0 °F 11% 29.87 in 10.0 mi Variable 3.5 mph - N/A   Clear
7:56 PM 91.9 °F 35.1 °F 13% 29.88 in 10.0 mi SSE 5.8 mph - N/A   Clear
8:56 PM 90.0 °F 34.0 °F 14% 29.90 in 10.0 mi South 5.8 mph - N/A   Clear
9:56 PM 89.1 °F 35.1 °F 15% 29.91 in 10.0 mi SSW 6.9 mph - N/A   Clear
10:56 PM 86.0 °F 34.0 °F 16% 29.91 in 10.0 mi SW 10.4 mph - N/A   Clear
11:56 PM 84.9 °F 34.0 °F 16% 29.90 in 10.0 mi SW 8.1 mph - N/A   Clear